User: anonymous
Location: Unspecified
(0.0000°N, 0.0000°E)
Time: 16:48:15
(UTC+00:00)
Language:

Vela 2A - Orbit

View from above orbital plane
View from above orbital plane
View from above satellite
View from above satellite

Ground track
Ground track

The orbit data is extracted from the following two-line orbital elements,

1 00836U 64040A   14209.01058961 -.00000094  00000-0  00000+0 0  5053
2 00836 082.4294 326.8298 3344885 266.2716 000.6627 00.23911810 43701
Epoch (UTC): 28 July 2014 00:15:14
Eccentricity: 0.3344885
inclination: 82.4294°
perigee height: 66592 km
apogee height: 139942 km
right ascension of ascending node: 326.8298°
argument of perigee: 266.2716°
revolutions per day: 0.23911810
mean anomaly at epoch: 0.6627°
orbit number at epoch: 4370

The dashed part of the orbit path shows where the satellite is in the earth's shadow,  

DLR